Flag for Netherlands Weather past 2 weeks in Kralendijk, Bonaire, Netherlands

Now
81 °F

Warm.


Feels Like: 86 °F
Forecast: 81 / 88 °F
Wind: 18 mph from East

Location: Flamingo Airport - Bonaire

Current Time: Apr 27, 2015 at 10:04:27 PM

Latest Report: Apr 27, 2015 at 9:00 PM


Visibility: N/A

Pressure: 29.80 "Hg

Humidity: 84%

Dew point: 75 °F

Location of KralendijkLocation

Historic Weather in Kralendijk — Graph

°F

Kralendijk temperature yesterday

Maximum temperature yesterday: 88 °F (at 12:00 PM)
Minimum temperature yesterday: 79 °F (at 1:00 AM)
Average temperature yesterday: 83 °F

Past Weeks' High & Low Weather Summary

 TemperatureHumidityPressure
High88 °F (Apr 14, 12:00 PM)89% (Apr 25, 2:00 AM)30.01 "Hg (Apr 25, 2:00 AM)
Low79 °F (Apr 13, 2:00 AM)62% (Apr 22, 1:00 PM)29.77 "Hg (Apr 27, 3:00 PM)
Average82 °F76%29.89 "Hg
* Reported Apr 12 8:00 PM — Apr 27 8:00 PM, Kralendijk, Weather by CustomWeather, © 2015

Note: Actual official high and low records may vary slightly from our data, if they occured in-between our weather recording intervals... More about our weather records

Advertising

Kralendijk weather history for previous 24 hours

 ConditionsComfort  
Time TempWeatherWind HumidityBarometerVisibility
8:00 PM
Mon, Apr 27
81 °FWarm.20 mph79%29.77 "HgN/A
7:00 PM81 °FPassing clouds.20 mph79%29.77 "HgN/A
6:00 PM82 °FWarm.20 mph74%29.77 "HgN/A
5:00 PM84 °FWarm.20 mph74%29.77 "HgN/A
4:00 PM86 °FPassing clouds.20 mph70%29.77 "HgN/A
3:00 PM88 °FPassing clouds.21 mph70%29.77 "HgN/A
2:00 PM86 °FWarm.20 mph70%29.80 "HgN/A
1:00 PM88 °FWarm.20 mph70%29.83 "HgN/A
12:00 PM86 °FWarm.20 mph75%29.86 "HgN/A
11:00 AM84 °FWarm.20 mph79%29.89 "HgN/A
10:00 AM84 °FWarm.15 mph79%29.89 "HgN/A
9:00 AM82 °FScattered showers. Cloudy.16 mph84%29.89 "HgN/A
8:00 AM81 °FWarm.14 mph89%29.86 "HgN/A
7:00 AM81 °FWarm.15 mph84%29.83 "HgN/A
6:00 AM81 °FWarm.16 mph84%29.83 "HgN/A
2:00 AM79 °FWarm.16 mph89%29.80 "HgN/A
1:00 AM81 °FWarm.17 mph84%29.83 "HgN/A
12:00 AM81 °FWarm.16 mph84%29.83 "HgN/A
11:00 PM
Sun, Apr 26
81 °FWarm.20 mph84%29.86 "HgN/A
10:00 PM81 °FWarm.18 mph84%N/AN/A
Weather by CustomWeather, © 2015

See weather overviewHow to use our weather pages